This is the latest recevied weather packets stored in our database for station/object VK2KGV-15. If no packets are shown the sender has not sent any weather packets the latest 10 day(s).
| Time | Temp. | Humidity | Pressure | Rain* | Wind** | Luminosity | Snow |
|---|---|---|---|---|---|---|---|
| 1787833341 | 8.33° C | 84% | 1025.6 hPa | 0 mm | - | - | - |
| 1787832135 | 8.89° C | 82% | 1025.7 hPa | 0 mm | - | - | - |
| 1787831532 | 9.44° C | 80% | 1025.6 hPa | 0 mm | - | - | - |
| 1787829722 | 10.56° C | 75% | 1025.5 hPa | 0 mm | - | - | - |
| 1787828516 | 11.67° C | 72% | 1025.4 hPa | 0 mm | - | - | - |
| 1787827310 | 13.33° C | 69% | 1025.2 hPa | 0 mm | - | - | - |
| 1787824903 | 15° C | 66% | 1025 hPa | 0 mm | - | - | - |
| 1787823691 | 15° C | 67% | 1024.8 hPa | 0 mm | - | - | - |
| 1787822485 | 15.56° C | 66% | 1024.6 hPa | 0 mm | - | - | - |
| 1787821436 | 15.56° C | 64% | 1024.3 hPa | 0 mm | - | - | - |
| 1787821279 | 15.56° C | 64% | 1024.3 hPa | 0 mm | - | - | - |
| 1787820072 | 16.11° C | 63% | 1024.1 hPa | 0 mm | - | - | - |
| 1787818866 | 16.67° C | 62% | 1023.8 hPa | 0 mm | - | - | - |
| 1787817660 | 16.67° C | 60% | 1023.7 hPa | 0 mm | - | - | - |
| 1787816454 | 17.78° C | 58% | 1023.2 hPa | 0 mm | - | - | - |
| 1787815247 | 18.33° C | 53% | 1022.9 hPa | 0 mm | - | - | - |
| 1787812835 | 19.44° C | 48% | 1022.5 hPa | 0 mm | - | - | - |
| 1787811629 | 19.44° C | 47% | 1022.5 hPa | 0 mm | - | - | - |
| 1787810423 | 21.11° C | 43% | 1022.3 hPa | 0 mm | - | - | - |
| 1787809820 | 20.56° C | 44% | 1022.2 hPa | 0 mm | - | - | - |
| 1787809221 | 20.56° C | 44% | 1022.4 hPa | 0 mm | - | - | - |
| 1787806804 | 21.67° C | 39% | 1022.3 hPa | 0 mm | - | - | - |
| 1787805598 | 22.22° C | 41% | 1022.4 hPa | 0 mm | - | - | - |
| 1787804995 | 21.67° C | 44% | 1022.6 hPa | 0 mm | - | - | - |
| 1787804391 | 21.11° C | 44% | 1022.8 hPa | 0 mm | - | - | - |
* Rain since midnight (hover to see other rain measurements)
** Current wind speed in m/s (hover to see current wind gust speed)